Regional Weather Roundup
Issued by NWS

Home | Current Version | Previous Version | Text Only | Print | Product List | Glossary On
Versions: 1 2 3 4 5 6 7 8 9 10 11 12 13 14 15 16 17 18 19 20 21 22 23 24 25 26 27 28 29 30 31 32 33 34 35 36 37 38 39 40 41 42 43 44 45 46 47 48 49 50
000
ASUS44 KBMX 041210
RWRAL

ALABAMA REGIONAL WEATHER ROUNDUP
NATIONAL WEATHER SERVICE BIRMINGHAM AL
700 AM CDT SAT JUL 04 2015

NOTE: "FAIR" INDICATES FEW OR NO CLOUDS BELOW 12,000 FEET
WITH NO SIGNIFICANT WEATHER AND/OR OBSTRUCTIONS TO VISIBILITY.

THE REMARK "TC" DENOTES TEMPERATURE IN DEGREES CELSIUS.

ALZ001>011-014-016>018-020-041300-
NORTH ALABAMA

CITY           SKY/WX    TMP DP  RH WIND       PRES   REMARKS
MUSCLE SHOALS  LGT RAIN  70  67  90 SW8       30.02S
6HR MIN TEMP:  70; 6HR MAX TEMP:  71; 6HR PCP:  0.08;

HUNTSVILLE     RAIN      71  68  90 SW6       30.02R FOG
6HR MIN TEMP:  70; 6HR MAX TEMP:  72; 6HR PCP:  0.04;

DECATUR        LGT RAIN  69  68  96 SW5       30.02R FOG
6HR MIN TEMP:  69; 6HR MAX TEMP:  71; 6HR PCP:  0.05;

HALEYVILLE     RAIN      68  68 100 CALM      30.07R FOG
6HR MIN TEMP:  66; 6HR MAX TEMP:  68; 6HR PCP:  0.72;

GADSDEN        CLOUDY    79  64  61 W12       30.05R
6HR MIN TEMP:  77; 6HR MAX TEMP:  81; 6HR PCP:  0.96;

$$

ALZ012-013-022-023-030>036-040>044-041300-
WEST CENTRAL ALABAMA

CITY           SKY/WX    TMP DP  RH WIND       PRES   REMARKS
TUSCALOOSA     PTSUNNY   74  71  91 CALM      30.04R
6HR MIN TEMP:  72; 6HR MAX TEMP:  74; 6HR PCP:  0.01;

$$

ALZ015-024>027-033>036-040>044-041300-
CENTRAL ALABAMA

CITY           SKY/WX    TMP DP  RH WIND       PRES   REMARKS
BIRMINGHAM     TSTM      68  68 100 S7        30.08R VSB 1
6HR MIN TEMP:  68; 6HR MAX TEMP:  71; 6HR PCP:  2.50;

MONTGOMERY     CLOUDY    75  72  90 S5        30.05R
6HR MIN TEMP:  72; 6HR MAX TEMP:  75; 6HR PCP:  0.08;

SHELBY CO ARPT CLOUDY    72  70  93 VRB3      30.05R
6HR MIN TEMP:  70; 6HR MAX TEMP:  72; 6HR PCP: TRACE;

MAXWELL AFB    CLOUDY    74  73  96 S3        30.04S
6HR MIN TEMP:  71; 6HR MAX TEMP:  74; 6HR PCP:  0.01;

GREENVILLE     FAIR      77  74  90 SW5       30.07R
6HR MIN TEMP:  76; 6HR MAX TEMP:  78;

$$

ALZ019-021-028-029-037-038-045>048-041300-
EAST CENTRAL ALABAMA

CITY           SKY/WX    TMP DP  RH WIND       PRES   REMARKS
ANNISTON       LGT RAIN  69  67  93 CALM      30.06S FOG
6HR MIN TEMP:  69; 6HR MAX TEMP:  71; 6HR PCP:  0.82;

ALEXANDER CITY CLOUDY    72  69  89 CALM      30.07R
6HR MIN TEMP:  67; 6HR MAX TEMP:  72; 6HR PCP:  0.13;

AUBURN         CLOUDY    70  64  83 S9        30.09R
                                      6HR PCP:  0.56;

$$

ALZ051>064-041300-
SOUTHWEST ALABAMA

CITY           SKY/WX    TMP DP  RH WIND       PRES   REMARKS
MOBILE         CLOUDY    78  76  93 SW6       30.08R FOG
6HR MIN TEMP:  77; 6HR MAX TEMP:  79;

BROOKLEY FIELD CLOUDY    79  76  90 CALM      30.08R
6HR MIN TEMP:  78; 6HR MAX TEMP:  80;

EVERGREEN      CLOUDY    77  76  96 CALM      30.08R
6HR MIN TEMP:  77; 6HR MAX TEMP:  78;

$$

ALZ049-050-065>069-041300-
SOUTHEAST ALABAMA

CITY           SKY/WX    TMP DP  RH WIND       PRES   REMARKS
DOTHAN         CLOUDY    77  76  96 SW6         N/A  FOG
6HR MIN TEMP:  75; 6HR MAX TEMP:  77;

OZARK          FOG       75  75 100 SW3       30.08R VSB 1
6HR MIN TEMP:  74; 6HR MAX TEMP:  76;

TROY           CLOUDY    77  75  93 SW5       30.09R
6HR MIN TEMP:  74; 6HR MAX TEMP:  78;

EUFAULA        CLOUDY    75  70  84 CALM      30.07S
6HR MIN TEMP:  70; 6HR MAX TEMP:  77;

$$


USA.gov is the U.S. government's official web portal to all federal, state and local government web resources and services.